Sigfox identifier Datetime Temperature Humidity SNR
003BE330 2018-10-09 09:15:12 21.1 44 21.4
003BE330 2018-10-09 08:12:01 21 43 22.3
003BE330 2018-10-09 07:08:44 21 42 22.1
003BE330 2018-10-09 06:05:26 21 41 21.8
003BE330 2018-10-09 05:02:10 21 41 21.5
003BE330 2018-10-09 01:52:18 21 39 20.9
003BE330 2018-10-09 00:49:01 21 39 20.6
003BE330 2018-10-08 23:45:44 21.1 39 20.4
003BE330 2018-10-08 22:42:29 21 38 20.2
003BE330 2018-10-08 21:39:14 21.1 38 20
003BE330 2018-10-08 20:35:54 21.3 38 19.7
003BE330 2018-10-08 19:32:37 21.3 38 19.3
003BE330 2018-10-08 18:29:19 21.3 38 18.8
003BE330 2018-10-08 17:26:00 21.3 38 18.7
003BE330 2018-10-08 16:22:46 21.3 37 18.7
003BE330 2018-10-08 15:19:28 21.3 37 18.6
003BE330 2018-10-08 14:16:08 21.2 35 18.1
003BE330 2018-10-08 13:12:50 21 34 18.1
003BE330 2018-10-08 12:09:37 21 33 17.7
003BE330 2018-10-08 11:06:18 20.9 31 17.9
003BE330 2018-10-08 10:02:56 20.8 31 18.2
003BE330 2018-10-08 07:56:25 20.6 31 18.3
003BE330 2018-10-08 06:53:08 20.8 33 18.4
003BE330 2018-10-08 05:49:51 20.8 33 18.1
003BE330 2018-10-08 04:46:34 20.8 33 14.8
003BE330 2018-10-08 03:43:16 20.8 34 14.9
003BE330 2018-10-08 02:39:56 20.8 34 14.8
003BE330 2018-10-08 01:36:40 20.8 35 14.7
003BE330 2018-10-08 00:33:28 20.8 35 14.7
003BE330 2018-10-07 23:30:13 20.8 36 14.7
003BE330 2018-10-07 22:26:58 20.8 36 14.9
003BE330 2018-10-07 21:23:42 20.8 36 15.1
003BE330 2018-10-07 20:20:27 20.9 37 15.1
003BE330 2018-10-07 19:17:11 20.8 37 15.2
003BE330 2018-10-07 18:13:59 20.9 37 15.4
003BE330 2018-10-07 17:10:44 20.8 37 15.6
003BE330 2018-10-07 16:07:30 20.8 37 15.6
003BE330 2018-10-07 15:04:13 20.8 37 15.9
003BE330 2018-10-07 14:00:56 20.8 37 16.1
003BE330 2018-10-07 12:57:42 20.8 37 16.2
003BE330 2018-10-07 11:54:23 20.8 37 16.9
003BE330 2018-10-07 10:51:11 20.8 37 16.9
003BE330 2018-10-07 09:47:56 20.8 38 17.3
003BE330 2018-10-07 08:44:41 20.8 38 18
003BE330 2018-10-07 07:41:28 20.8 38 17.8
003BE330 2018-10-07 06:38:14 20.8 38 17.7
003BE330 2018-10-07 05:35:02 20.8 38 17.9
003BE330 2018-10-07 04:31:44 20.8 39 17.8
003BE330 2018-10-07 03:28:28 20.9 39 17.9
003BE330 2018-10-07 02:25:17 20.9 39 17.4
003BE330 2018-10-07 01:22:05 20.9 39 17.7
003BE330 2018-10-07 00:18:52 21 39 17.8
003BE330 2018-10-06 23:15:36 21 39 17.9
003BE330 2018-10-06 22:12:20 21 39 17.9
003BE330 2018-10-06 21:09:04 21 39 17.9
003BE330 2018-10-06 20:05:48 21 39 18.2
003BE330 2018-10-06 19:02:35 21 39 18.1
003BE330 2018-10-06 17:59:21 21 39 18.2
003BE330 2018-10-06 16:56:05 21 39 18.3
003BE330 2018-10-06 15:52:51 21 39 18.4
003BE330 2018-10-06 14:49:36 21 39 18.4
003BE330 2018-10-06 13:46:18 21 39 18.3
003BE330 2018-10-06 12:43:01 21 39 18.2
003BE330 2018-10-06 11:39:44 21 39 18.7
003BE330 2018-10-06 10:36:28 21 39 18.9
003BE330 2018-10-06 09:33:12 21 39 19.5
003BE330 2018-10-06 08:29:57 21 40 20.1
003BE330 2018-10-06 07:26:44 21 40 20
003BE330 2018-10-06 06:23:30 21 40 19.7
003BE330 2018-10-06 05:20:14 21 40 19.7
003BE330 2018-10-06 04:16:58 21.1 41 20
003BE330 2018-10-06 03:13:40 21.1 41 20.3
003BE330 2018-10-06 02:10:21 21.3 41 20.7
003BE330 2018-10-06 01:07:09 21.3 42 20.8
003BE330 2018-10-06 00:03:52 21.3 42 20.8
003BE330 2018-10-05 23:00:37 21.3 43 20.7
003BE330 2018-10-05 21:57:24 21.3 43 21
003BE330 2018-10-05 20:54:07 21.5 44 20.9
003BE330 2018-10-05 19:50:50 21.5 44 21.1
003BE330 2018-10-05 18:47:35 21.5 44 21.3
003BE330 2018-10-05 17:44:19 21.7 45 22.2
003BE330 2018-10-05 16:41:04 21.7 46 22.3
003BE330 2018-10-05 15:37:43 21.7 46 22.2
003BE330 2018-10-05 14:34:28 21.7 45 22.2
003BE330 2018-10-05 13:31:11 21.7 44 22.1
003BE330 2018-10-05 12:27:56 21.7 42 22
003BE330 2018-10-05 11:24:38 21.5 39 22.1
003BE330 2018-10-05 10:21:21 21.3 36 22.1
003BE330 2018-10-05 09:18:05 21.2 34 21.9
003BE330 2018-10-05 08:14:46 21 31 21.7
003BE330 2018-10-05 07:11:32 20.9 29 21.2
003BE330 2018-10-05 06:08:15 20.8 29 20.7
003BE330 2018-10-05 05:05:00 21 28 20.6
003BE330 2018-10-05 04:01:43 21 29 20.5
003BE330 2018-10-05 02:58:26 21 29 20.5
003BE330 2018-10-05 01:55:08 21 29 20.1
003BE330 2018-10-05 00:51:53 21.1 29 19.6
003BE330 2018-10-04 23:48:36 21.3 29 19.2
003BE330 2018-10-04 22:45:19 21.3 29 19.1
003BE330 2018-10-04 21:42:01 21.3 29 19
003BE330 2018-10-04 20:38:45 21.3 28 19.5
003BE330 2018-10-04 19:35:30 21.3 28 20.1
003BE330 2018-10-04 18:32:15 21.3 28 20.2
003BE330 2018-10-04 17:28:59 21.3 28 20
003BE330 2018-10-04 16:25:43 21.3 29 19.9
003BE330 2018-10-04 15:22:33 21 28 18.2
003BE330 2018-10-04 14:19:25 21 29 18.3
003BE330 2018-10-04 13:16:10 21 28 18.6
003BE330 2018-10-04 12:12:57 21 30 18.6
003BE330 2018-10-04 11:09:35 20.9 30 18.7
003BE330 2018-10-04 10:06:17 20.6 31 18.9
003BE330 2018-10-04 09:03:02 20.6 32 19
003BE330 2018-10-04 07:59:43 20.4 33 20.7
003BE330 2018-10-04 06:56:29 20.5 35 20.8
003BE330 2018-10-04 05:53:15 20.5 36 20.8
003BE330 2018-10-04 04:49:59 20.6 36 20.9
003BE330 2018-10-04 03:46:43 20.6 37 20.9
003BE330 2018-10-04 02:43:23 20.6 37 20.9
003BE330 2018-10-04 01:40:10 20.6 38 20.9
003BE330 2018-10-04 00:36:59 20.6 38 20.9
003BE330 2018-10-03 23:33:43 20.6 39 20.9
003BE330 2018-10-03 22:30:28 20.7 39 20.9
003BE330 2018-10-03 21:27:11 20.7 40 21
003BE330 2018-10-03 19:20:35 20.8 40 21
003BE330 2018-10-03 18:17:17 20.6 40 68
003BE330 2018-10-03 17:14:01 20.8 42 68
003BE330 2018-10-03 16:10:48 20.8 43 68
003BE330 2018-10-03 15:07:37 20.6 44 68
003BE330 2018-10-03 14:04:24 20.6 43 68
003BE330 2018-10-03 13:01:12 20.6 42 68
003BE330 2018-10-03 11:58:01 20.5 40 68
003BE330 2018-10-03 09:51:38 20.6 40 68
003BE330 2018-10-03 07:45:09 20.2 38 68
003BE330 2018-10-03 06:41:58 20.4 40 68
003BE330 2018-10-03 05:38:45 20.4 40 68
003BE330 2018-10-03 04:35:32 20.4 40 68
003BE330 2018-10-03 03:32:24 20.4 40 68
003BE330 2018-10-03 02:29:09 20.4 40 68
003BE330 2018-10-03 01:25:57 20.5 40 68
003BE330 2018-10-03 00:22:43 20.5 40 68
003BE330 2018-10-02 23:19:29 20.6 40 68
003BE330 2018-10-02 22:16:16 20.6 40 68
003BE330 2018-10-02 21:13:04 20.6 40 68.2
003BE330 2018-10-02 20:09:49 20.6 40 68.4
003BE330 2018-10-02 19:06:33 20.5 40 68.6
003BE330 2018-10-02 18:03:16 20.5 40 68.8
003BE330 2018-10-02 17:00:03 20.6 41 69
003BE330 2018-10-02 15:56:45 20.6 40 69.2
003BE330 2018-10-02 14:53:30 20.7 39 69.4
003BE330 2018-10-02 13:50:14 20.6 39 19.1
003BE330 2018-10-02 12:46:59 20.6 40 19.1
003BE330 2018-10-02 11:43:43 20.8 43 19.3
003BE330 2018-10-02 10:40:30 20.6 43 19.4
003BE330 2018-10-02 09:37:16 20.6 44 19.6
003BE330 2018-10-02 07:30:48 20.4 41 19.9
003BE330 2018-10-02 05:24:16 20.4 43 20.2
003BE330 2018-10-02 04:20:56 20.4 43 20.5
003BE330 2018-10-02 03:17:44 20.4 43 20.9
003BE330 2018-10-02 02:14:24 20.5 43 11.2
003BE330 2018-10-02 01:11:09 20.6 43 11.5
003BE330 2018-10-02 00:07:52 20.6 43 11.9
003BE330 2018-10-01 23:04:36 20.6 43 12
003BE330 2018-10-01 22:01:20 20.6 43 12.2
003BE330 2018-10-01 20:58:01 20.6 43 11.6
003BE330 2018-10-01 19:54:44 20.6 43 13
003BE330 2018-10-01 18:51:29 20.4 43 12.5
003BE330 2018-10-01 17:48:12 20.2 44 0